GW7626 Weather Reports


time (UTC)temp
F
wind
direction
speed
knots
gust
knots
rain 1hr
in
rain 24hr
in
rain mn
in
humidity
%
barometer
mb
20260906052438 77 297 0.0 0.0 0.00 0.00 0.00 88 1011.2
20260906051934 77 297 0.0 0.0 0.00 0.00 0.00 88 1011.4
20260906051430 77 297 0.0 0.0 0.00 0.00 0.00 87 1011.3
20260906050925 77 297 0.0 0.0 0.00 0.00 0.00 87 1011.2
20260906050425 77 297 0.0 0.0 0.00 0.00 0.00 86 1011.1
20260906045924 77 297 0.0 0.0 0.00 0.00 0.00 86 1011.2
20260906045423 77 297 0.0 0.0 0.00 0.00 0.00 87 1011.3
20260906044920 77 297 0.0 0.0 0.00 0.00 0.00 87 1011.2
20260906044420 77 297 0.0 0.0 0.00 0.00 0.00 87 1011.1
20260906043915 77 297 0.0 0.0 0.00 0.00 0.00 87 1011.2
20260906043411 77 297 0.0 0.0 0.00 0.00 0.00 87 1011.1
20260906042906 78 297 0.0 0.0 0.00 0.00 0.00 87 1011.1
20260906042406 78 297 0.0 0.0 0.00 0.00 0.00 86 1011.2
20260906041901 78 297 0.0 0.0 0.00 0.00 0.00 86 1011.0
20260906041357 78 297 0.0 0.0 0.00 0.00 0.00 86 1011.2
20260906040856 78 297 0.0 0.0 0.00 0.00 0.00 86 1011.0
20260906040352 78 297 0.0 0.0 0.00 0.00 0.00 86 1011.1
20260906035847 78 297 0.0 0.0 0.00 0.00 0.00 86 1011.1
20260906035342 78 297 0.0 0.0 0.00 0.00 0.00 85 1011.1
20260906034838 78 297 0.0 0.0 0.00 0.00 0.00 85 1011.1
20260906034333 78 297 0.0 0.0 0.00 0.00 0.00 84 1011.1
20260906033829 78 297 0.0 0.0 0.00 0.00 0.00 84 1011.3
20260906033328 78 297 0.0 0.0 0.00 0.00 0.00 84 1011.2
20260906032824 78 297 0.0 0.0 0.00 0.00 0.00 85 1011.2
20260906032320 78 297 0.0 0.0 0.00 0.00 0.00 85 1011.1
20260906031815 79 297 0.0 0.0 0.00 0.00 0.00 85 1011.2
20260906031310 79 297 0.0 0.0 0.00 0.00 0.00 85 1011.4
20260906030810 79 297 0.0 0.0 0.00 0.00 0.00 85 1011.4
20260906030305 79 297 0.0 0.0 0.00 0.00 0.00 85 1011.2
20260906025805 79 297 0.0 0.0 0.00 0.00 0.00 83 1011.3
20260906025259 79 297 0.0 0.0 0.00 0.00 0.00 83 1011.2
20260906024758 79 297 0.0 0.0 0.00 0.00 0.00 82 1011.2
20260906024257 80 297 0.0 0.0 0.00 0.00 0.00 82 1011.3
20260906023753 80 297 0.0 0.0 0.00 0.00 0.00 82 1011.1
20260906023248 80 297 0.0 0.0 0.00 0.00 0.00 82 1010.9
20260906022744 80 297 0.0 0.0 0.00 0.00 0.00 80 1011.1
20260906022239 80 297 0.0 0.0 0.00 0.00 0.00 81 1011.1
20260906021735 80 297 0.0 0.0 0.00 0.00 0.00 81 1010.9
20260906021234 81 297 0.0 0.0 0.00 0.00 0.00 79 1010.9
20260906020729 81 297 0.0 0.0 0.00 0.00 0.00 78 1010.7
20260906020223 81 297 0.0 0.0 0.00 0.00 0.00 77 1010.7
20260906015723 82 297 0.0 0.0 0.00 0.00 0.00 77 1010.7
20260906015221 82 297 0.0 0.0 0.00 0.00 0.00 78 1010.4
20260906014716 82 297 0.0 0.0 0.00 0.00 0.00 78 1010.6
20260906014213 82 297 0.0 0.0 0.00 0.00 0.00 79 1010.5
20260906013708 82 297 0.0 0.0 0.00 0.00 0.00 79 1010.4
20260906013208 82 297 0.0 0.0 0.00 0.00 0.00 78 1010.4
20260906012703 83 297 0.0 0.0 0.00 0.00 0.00 77 1010.4
20260906012158 83 297 0.0 0.0 0.00 0.00 0.00 75 1010.3
20260906011654 83 297 0.0 0.0 0.00 0.00 0.00 75 1010.3
20260906011154 83 297 0.0 0.0 0.00 0.00 0.00 75 1010.2
20260906010649 83 297 0.0 0.0 0.00 0.00 0.00 75 1010.3
20260906010146 83 297 0.0 0.0 0.00 0.00 0.00 75 1010.2
20260906005645 84 297 0.0 0.0 0.00 0.00 0.00 75 1010.2
20260906005144 85 297 0.0 0.0 0.00 0.00 0.00 73 1010.2
20260906004643 85 297 0.0 0.0 0.00 0.00 0.00 71 1010.3
20260906004138 85 297 0.0 0.0 0.00 0.00 0.00 73 1010.1
20260906003634 85 297 0.0 0.0 0.00 0.00 0.00 71 1010.0
20260906003130 86 297 0.0 0.0 0.00 0.00 0.00 70 1010.0
20260906002624 86 297 0.0 0.0 0.00 0.00 0.00 71 1010.3
20260906002119 87 297 0.0 0.0 0.00 0.00 0.00 68 1010.1
20260906001609 87 297 0.0 0.0 0.00 0.00 0.00 67 1010.0
20260906001108 87 297 0.0 0.0 0.00 0.00 0.00 67 1010.3
20260906000605 88 297 0.0 0.0 0.00 0.00 0.00 69 1010.0
20260906000059 88 297 0.0 0.0 0.00 0.00 0.00 66 1010.2
20260905235559 89 297 0.0 0.0 0.00 0.00 0.00 67 1010.3
20260905235054 90 297 0.0 0.0 0.00 0.00 0.00 67 1010.2
20260905234549 91 297 0.0 0.0 0.00 0.00 0.00 63 1010.2
20260905234044 91 297 0.0 0.0 0.00 0.00 0.00 62 1010.3
20260905233544 92 297 0.0 0.0 0.00 0.00 0.00 59 1010.3
20260905233044 92 297 0.0 0.0 0.00 0.00 0.00 59 1010.2
20260905232540 93 297 0.0 0.0 0.00 0.00 0.00 55 1010.4
20260905232035 94 297 0.0 0.9 0.00 0.00 0.00 53 1010.0
20260905231530 94 297 0.0 0.9 0.00 0.00 0.00 52 1010.2
20260905231026 95 297 0.0 0.0 0.00 0.00 0.00 50 1010.3
20260905230526 95 335 0.0 0.0 0.00 0.00 0.00 48 1010.3
20260905230024 95 335 0.0 0.0 0.00 0.00 0.00 49 1010.5
20260905225519 96 345 0.0 0.0 0.00 0.00 0.00 47 1010.4
20260905225014 96 294 0.0 0.0 0.00 0.00 0.00 46 1010.2
20260905224509 96 349 0.0 0.9 0.00 0.00 0.00 46 1010.3
20260905224008 96 327 0.0 0.9 0.00 0.00 0.00 45 1010.3
20260905223506 96 353 0.0 0.9 0.00 0.00 0.00 45 1010.4
20260905223001 96 18 0.9 1.7 0.00 0.00 0.00 45 1010.2
20260905222501 96 166 0.0 0.9 0.00 0.00 0.00 48 1010.2
20260905221956 96 89 0.9 0.9 0.00 0.00 0.00 47 1010.2
20260905221453 96 250 0.9 3.5 0.00 0.00 0.00 45 1010.3
20260905220949 96 339 0.0 0.9 0.00 0.00 0.00 45 1010.5
20260905220445 96 305 0.9 2.6 0.00 0.00 0.00 45 1010.3
20260905215944 96 3 0.0 2.6 0.00 0.00 0.00 46 1010.2
20260905215440 96 28 0.9 2.6 0.00 0.00 0.00 45 1010.5
20260905214936 96 275 2.6 5.2 0.00 0.00 0.00 44 1010.5
20260905214432 96 324 1.7 2.6 0.00 0.00 0.00 45 1010.4
20260905213931 96 9 0.9 3.5 0.00 0.00 0.00 46 1010.6
20260905213428 96 267 1.7 3.5 0.00 0.00 0.00 45 1010.5
20260905212923 97 335 0.9 2.6 0.00 0.00 0.00 45 1010.5
20260905212418 97 359 1.7 2.6 0.00 0.00 0.00 43 1010.2
20260905211917 98 35 0.9 7.0 0.00 0.00 0.00 43 1010.4
20260905211413 99 284 1.7 2.6 0.00 0.00 0.00 41 1010.3
20260905210909 99 348 1.7 3.5 0.00 0.00 0.00 41 1010.2
20260905210409 100 45 1.7 2.6 0.00 0.00 0.00 40 1010.6
20260905205908 99 20 1.7 5.2 0.00 0.00 0.00 40 1010.4
20260905205403 99 344 2.6 5.2 0.00 0.00 0.00 41 1010.5
20260905204901 99 340 1.7 3.5 0.00 0.00 0.00 40 1010.6
20260905204358 99 329 2.6 3.5 0.00 0.00 0.00 40 1010.6
20260905203856 99 299 1.7 2.6 0.00 0.00 0.00 41 1010.6
20260905203352 99 297 3.5 5.2 0.00 0.00 0.00 39 1010.9
20260905202848 99 23 0.0 1.7 0.00 0.00 0.00 39 1011.0
20260905202349 99 3 1.7 3.5 0.00 0.00 0.00 40 1010.8
20260905201845 99 83 0.9 3.5 0.00 0.00 0.00 40 1011.2
20260905201340 99 28 1.7 2.6 0.00 0.00 0.00 40 1011.3
20260905200839 99 328 3.5 5.2 0.00 0.00 0.00 39 1011.3
20260905200336 100 353 1.7 5.2 0.00 0.00 0.00 40 1011.4
20260905195833 101 350 3.5 7.0 0.00 0.00 0.00 38 1011.3
20260905195329 101 315 1.7 2.6 0.00 0.00 0.00 39 1011.5
20260905194825 99 344 2.6 2.6 0.00 0.00 0.00 40 1011.5
20260905194324 99 188 0.0 1.7 0.00 0.00 0.00 42 1011.7
20260905193823 99 326 0.9 2.6 0.00 0.00 0.00 40 1011.6
20260905193319 100 352 1.7 3.5 0.00 0.00 0.00 40 1011.8
20260905192814 100 1 1.7 6.1 0.00 0.00 0.00 41 1011.7
20260905192310 101 311 2.6 3.5 0.00 0.00 0.00 38 1011.8
20260905191809 101 179 1.7 2.6 0.00 0.00 0.00 38 1012.0
20260905191308 100 17 1.7 3.5 0.00 0.00 0.00 38 1011.9
20260905190807 100 66 2.6 5.2 0.00 0.00 0.00 40 1012.2
20260905190301 100 38 3.5 5.2 0.00 0.00 0.00 38 1012.3
20260905185800 101 8 3.5 5.2 0.00 0.00 0.00 37 1012.0
20260905185255 100 42 0.9 2.6 0.00 0.00 0.00 39 1012.4
20260905184754 100 22 3.5 5.2 0.00 0.00 0.00 41 1012.3
20260905184253 100 27 1.7 3.5 0.00 0.00 0.00 40 1012.4
20260905183753 98 10 0.0 1.7 0.00 0.00 0.00 42 1012.3
20260905183249 99 350 3.5 5.2 0.00 0.00 0.00 41 1012.6
20260905182748 100 334 1.7 3.5 0.00 0.00 0.00 42 1012.6
20260905182247 100 31 1.7 7.0 0.00 0.00 0.00 42 1012.7
20260905181743 100 305 0.0 2.6 0.00 0.00 0.00 44 1012.4
20260905181242 100 324 2.6 2.6 0.00 0.00 0.00 42 1012.7
20260905180737 100 310 1.7 1.7 0.00 0.00 0.00 43 1012.6
20260905180232 99 306 2.6 5.2 0.00 0.00 0.00 40 1012.7
20260905175732 99 14 2.6 6.1 0.00 0.00 0.00 41 1012.8
20260905175227 99 353 1.7 3.5 0.00 0.00 0.00 41 1012.9
20260905174722 99 345 4.3 6.1 0.00 0.00 0.00 41 1013.0
20260905174218 100 64 1.7 1.7 0.00 0.00 0.00 44 1012.9
20260905173714 99 58 0.0 2.6 0.00 0.00 0.00 43 1013.0
20260905173210 99 323 1.7 3.5 0.00 0.00 0.00 45 1013.0
20260905172709 99 21 1.7 2.6 0.00 0.00 0.00 45 1013.2
20260905172209 100 303 0.9 1.7 0.00 0.00 0.00 44 1013.1
20260905171704 100 318 1.7 2.6 0.00 0.00 0.00 44 1013.3
20260905171201 99 70 0.0 2.6 0.00 0.00 0.00 44 1013.4
20260905170658 99 43 2.6 5.2 0.00 0.00 0.00 43 1013.3
20260905170157 98 120 1.7 2.6 0.00 0.00 0.00 48 1013.5
20260905165657 98 348 1.7 6.1 0.00 0.00 0.00 46 1013.5
20260905165152 98 42 1.7 3.5 0.00 0.00 0.00 46 1013.6
20260905164647 98 37 1.7 2.6 0.00 0.00 0.00 46 1013.6
20260905164147 99 33 3.5 5.2 0.00 0.00 0.00 43 1013.7
20260905163643 97 236 0.9 5.2 0.00 0.00 0.00 46 1013.7
20260905163139 97 34 0.0 2.6 0.00 0.00 0.00 48 1013.7
20260905162635 97 325 1.7 2.6 0.00 0.00 0.00 49 1013.7
20260905162135 97 297 1.7 1.7 0.00 0.00 0.00 49 1013.7
20260905161634 96 64 1.7 3.5 0.00 0.00 0.00 49 1013.9
20260905161132 96 292 2.6 5.2 0.00 0.00 0.00 48 1013.9
20260905160627 97 356 2.6 5.2 0.00 0.00 0.00 49 1013.9
20260905160127 96 47 1.7 2.6 0.00 0.00 0.00 51 1013.9
20260905155626 96 305 0.9 2.6 0.00 0.00 0.00 50 1014.0
20260905155125 96 21 0.9 2.6 0.00 0.00 0.00 51 1014.0
20260905154620 96 109 1.7 1.7 0.00 0.00 0.00 53 1014.0
20260905154116 96 317 1.7 2.6 0.00 0.00 0.00 52 1014.0
20260905153611 96 107 0.0 0.9 0.00 0.00 0.00 56 1013.9
20260905153106 96 70 0.0 1.7 0.00 0.00 0.00 54 1014.0
20260905152601 95 105 0.9 0.9 0.00 0.00 0.00 54 1013.9
20260905152056 94 296 0.0 0.9 0.00 0.00 0.00 59 1013.9
20260905151551 95 310 0.9 2.6 0.00 0.00 0.00 55 1013.9
20260905151046 95 339 0.9 2.6 0.00 0.00 0.00 56 1013.9
20260905150541 94 312 0.9 0.9 0.00 0.00 0.00 55 1014.2
20260905150040 94 3 0.0 2.6 0.00 0.00 0.00 56 1014.1
20260905145538 94 57 0.0 2.6 0.00 0.00 0.00 56 1013.8
20260905145038 94 266 0.0 0.9 0.00 0.00 0.00 55 1014.2
20260905144533 93 241 0.0 0.9 0.00 0.00 0.00 58 1014.0
20260905144032 92 43 0.9 1.7 0.00 0.00 0.00 56 1013.9
20260905143531 93 297 0.9 0.9 0.00 0.00 0.00 57 1014.0
20260905143027 91 28 0.0 0.9 0.00 0.00 0.00 62 1013.8
20260905142525 91 277 0.0 0.9 0.00 0.00 0.00 63 1013.9
20260905142021 90 308 0.0 0.9 0.00 0.00 0.00 63 1013.7
20260905141515 89 308 0.0 0.9 0.00 0.00 0.00 67 1013.7
20260905141012 89 332 1.7 1.7 0.00 0.00 0.00 65 1013.8
20260905140506 89 322 0.0 0.9 0.00 0.00 0.00 66 1014.1
20260905140005 89 326 0.0 0.9 0.00 0.00 0.00 67 1013.8
20260905135501 88 136 0.0 0.0 0.00 0.00 0.00 67 1013.7
20260905134956 86 137 0.0 0.0 0.00 0.00 0.00 70 1013.9
20260905134455 86 135 0.0 0.0 0.00 0.00 0.00 69 1013.9
20260905133955 85 170 0.0 0.0 0.00 0.00 0.00 72 1013.9
20260905133450 84 146 0.0 0.0 0.00 0.00 0.00 73 1013.9
20260905132949 84 138 0.0 0.0 0.00 0.00 0.00 75 1014.0
20260905132444 84 242 0.0 0.0 0.00 0.00 0.00 75 1013.8
20260905131939 84 301 0.0 0.0 0.00 0.00 0.00 74 1013.9
20260905131435 83 301 0.0 0.0 0.00 0.00 0.00 76 1013.8
20260905130930 83 288 0.0 0.0 0.00 0.00 0.00 78 1013.8
20260905130429 82 288 0.0 0.0 0.00 0.00 0.00 79 1013.8
20260905125929 81 287 0.0 0.0 0.00 0.00 0.00 81 1013.6
20260905125424 80 288 0.0 0.0 0.00 0.00 0.00 82 1013.6
20260905124920 79 288 0.0 0.0 0.00 0.00 0.00 84 1013.7
20260905124416 78 288 0.0 0.0 0.00 0.00 0.00 86 1013.7
20260905123916 77 288 0.0 0.0 0.00 0.00 0.00 89 1013.5
20260905123413 76 288 0.0 0.0 0.00 0.00 0.00 92 1013.4
20260905122908 75 288 0.0 0.0 0.00 0.00 0.00 93 1013.5
20260905122407 75 288 0.0 0.0 0.00 0.00 0.00 94 1013.5
20260905121903 74 288 0.0 0.0 0.00 0.00 0.00 94 1013.4
20260905121359 74 288 0.0 0.0 0.00 0.00 0.00 95 1013.5
20260905120857 74 288 0.0 0.0 0.00 0.00 0.00 95 1013.3
20260905120352 74 288 0.0 0.0 0.00 0.00 0.00 95 1013.5
20260905115847 74 288 0.0 0.0 0.00 0.00 0.00 95 1013.2
20260905115346 74 288 0.0 0.0 0.00 0.00 0.00 95 1013.1
20260905114841 73 288 0.0 0.0 0.00 0.00 0.00 95 1013.1
20260905114340 73 288 0.0 0.0 0.00 0.00 0.00 95 1013.2
20260905113839 74 288 0.0 0.0 0.00 0.00 0.00 95 1012.8
20260905113335 73 288 0.0 0.0 0.00 0.00 0.00 95 1013.1
20260905112831 73 288 0.0 0.0 0.00 0.00 0.00 95 1012.9
20260905112325 74 288 0.0 0.0 0.00 0.00 0.00 95 1013.1
20260905111821 74 288 0.0 0.0 0.00 0.00 0.00 95 1012.9
20260905111315 73 288 0.0 0.0 0.00 0.00 0.00 94 1013.0
20260905110814 74 288 0.0 0.0 0.00 0.00 0.00 94 1012.8
20260905110308 74 288 0.0 0.0 0.00 0.00 0.00 94 1012.9
20260905105804 74 288 0.0 0.0 0.00 0.00 0.00 94 1012.8
20260905105306 74 288 0.0 0.0 0.00 0.00 0.00 94 1012.9
20260905104757 74 288 0.0 0.0 0.00 0.00 0.00 94 1012.9
20260905104254 74 288 0.0 0.0 0.00 0.00 0.00 94 1012.8
20260905103753 74 288 0.0 0.0 0.00 0.00 0.00 94 1013.0
20260905103249 74 288 0.0 0.0 0.00 0.00 0.00 94 1013.0
20260905102744 74 288 0.0 0.0 0.00 0.00 0.00 94 1013.0
20260905102241 74 288 0.0 0.0 0.00 0.00 0.00 93 1012.9
20260905101740 74 288 0.0 0.0 0.00 0.00 0.00 93 1012.8
20260905101238 74 288 0.0 0.0 0.00 0.00 0.00 93 1012.9
20260905100734 74 288 0.0 0.0 0.00 0.00 0.00 93 1012.8
20260905100230 74 288 0.0 0.0 0.00 0.00 0.00 93 1013.0
20260905095729 74 288 0.0 0.0 0.00 0.00 0.00 93 1013.0
20260905095229 74 288 0.0 0.0 0.00 0.00 0.00 93 1012.8
20260905094724 74 288 0.0 0.0 0.00 0.00 0.00 93 1013.1
20260905094219 74 288 0.0 0.0 0.00 0.00 0.00 93 1013.1
20260905093718 74 288 0.0 0.0 0.00 0.00 0.00 93 1012.7
20260905093215 74 288 0.0 0.0 0.00 0.00 0.00 93 1012.9
20260905092710 74 288 0.0 0.0 0.00 0.00 0.00 92 1012.9
20260905092205 74 288 0.0 0.0 0.00 0.00 0.00 93 1012.7
20260905091705 74 288 0.0 0.0 0.00 0.00 0.00 93 1012.6
20260905091200 74 288 0.0 0.0 0.00 0.00 0.00 93 1012.6
20260905090659 75 288 0.0 0.0 0.00 0.00 0.00 93 1012.8
20260905090155 75 288 0.0 0.0 0.00 0.00 0.00 93 1012.6
20260905085653 75 288 0.0 0.0 0.00 0.00 0.00 93 1012.6
20260905085149 75 288 0.0 0.0 0.00 0.00 0.00 92 1012.9
20260905084649 75 288 0.0 0.0 0.00 0.00 0.00 92 1012.6
20260905084143 75 288 0.0 0.0 0.00 0.00 0.00 92 1012.6
20260905083638 75 288 0.0 0.0 0.00 0.00 0.00 91 1012.8
20260905083134 75 288 0.0 0.0 0.00 0.00 0.00 91 1012.8
20260905082630 75 288 0.0 0.0 0.00 0.00 0.00 91 1012.8
20260905082126 75 288 0.0 0.0 0.00 0.00 0.00 90 1012.9
20260905081626 75 288 0.0 0.0 0.00 0.00 0.00 90 1012.7
20260905081126 75 288 0.0 0.0 0.00 0.00 0.00 90 1012.8
20260905080620 76 288 0.0 0.0 0.00 0.00 0.00 90 1012.9
20260905080115 76 288 0.0 0.0 0.00 0.00 0.00 91 1013.0
20260905075614 76 288 0.0 0.0 0.00 0.00 0.00 90 1013.0
20260905075114 76 288 0.0 0.0 0.00 0.00 0.00 89 1012.9
20260905074613 76 288 0.0 0.0 0.00 0.00 0.00 89 1012.9
20260905074109 76 288 0.0 0.0 0.00 0.00 0.00 90 1012.9
20260905073604 76 288 0.0 0.0 0.00 0.00 0.00 90 1013.0
20260905073100 76 288 0.0 0.0 0.00 0.00 0.00 90 1013.1
20260905072559 76 288 0.0 0.0 0.00 0.00 0.00 89 1012.9
20260905072055 76 288 0.0 0.0 0.00 0.00 0.00 90 1013.0
20260905071552 76 288 0.0 0.0 0.00 0.00 0.00 90 1012.9
20260905071051 76 288 0.0 0.0 0.00 0.00 0.00 89 1013.0
20260905070546 76 288 0.0 0.0 0.00 0.00 0.00 89 1013.0
20260905070042 77 288 0.0 0.0 0.00 0.00 0.00 90 1012.8
20260905065540 77 288 0.0 0.0 0.00 0.00 0.00 90 1013.1
20260905065035 77 288 0.0 0.0 0.00 0.00 0.00 89 1012.9
20260905064536 77 288 0.0 0.0 0.00 0.00 0.00 89 1013.0
20260905064031 77 288 0.0 0.0 0.00 0.00 0.00 89 1013.2
20260905063530 77 288 0.0 0.0 0.00 0.00 0.00 89 1013.0
20260905063027 77 288 0.0 0.0 0.00 0.00 0.00 89 1013.0
20260905062526 77 288 0.0 0.0 0.00 0.00 0.00 89 1012.9
20260905062021 77 288 0.0 0.0 0.00 0.00 0.00 89 1013.0
20260905061516 77 288 0.0 0.0 0.00 0.00 0.00 87 1013.0
20260905061015 77 288 0.0 0.0 0.00 0.00 0.00 87 1012.8
20260905060512 77 288 0.0 0.0 0.00 0.00 0.00 86 1013.0
20260905060007 77 288 0.0 0.0 0.00 0.00 0.00 87 1012.9
20260905055505 78 288 0.0 0.0 0.00 0.00 0.00 87 1012.9
20260905055000 78 288 0.0 0.0 0.00 0.00 0.00 87 1012.9
20260905054455 78 288 0.0 0.0 0.00 0.00 0.00 86 1012.9
20260905053951 78 288 0.0 0.0 0.00 0.00 0.00 86 1013.0
20260905053445 78 288 0.0 0.0 0.00 0.00 0.00 86 1013.0
20260905052941 78 288 0.0 0.0 0.00 0.00 0.00 86 1013.1